Location: Beutels
(47.8767°N, 9.8584°E)
Time: 21:36:49
(UTC+00:00)

Okean 3 Rocket - Pass Details

Date: 19 May 2025
Orbit: 610 x 638 km, 82.5° (Epoch: 15 June)

Event Time Altitude Azimuth Distance (km) Brightness Sun altitude
Rises 21:51:34 0° 354° (N) 2,899 8.4 -19.5°
Reaches altitude 10° 21:53:50 10° 359° (N) 1,993 7.2 -19.6°
Maximum altitude 21:58:11 55° 77° (ENE) 747 3.8 -19.9°
Enters shadow 21:59:13 44° 125° (SE) 868 3.9 -19.9°
